Погода в Панинской Слободе

Россия / Рязанская область     54°14′05″N   39°45′16″E
темп.,
°C
ветер,
м/с
пор.,
м/с
влажн.,
%
обл.,
%
осадки,
мм/ч
давл.,
гПа
погр.,
м
15 мая, сб
сб1500:00+15ююв3592100 1.6 101268
03:00+15в239559 3.4 101136
06:00+17ююв4896100 1.6 1009214
09:00+20ю71186100 2.1 1010627
12:00+20ю61081100 4.6 1011554
15:00+22ююз68685 5.6 10111391
18:00+20ююз610736 0.7 1011578
21:00+15ююз410878 0.9 1012190
16 мая, вс
вс1600:00+14ююз410890 0.0 1013173
03:00+12ююз38915 0.0 1013150
06:00+13ююз399082 0.0 1014242
09:00+18ююз46723 0.0 1015555
12:00+21ююз57585 0.0 10151512
15:00+22юз57515 0.0 10152106
18:00+21ююз34685 0.0 1014175
21:00+16сз118197 0.0 101511
17 мая, пн
пн1700:00+15св228442 0.0 101511
03:00+13в338468 0.0 101526
06:00+14всв388944 0.3 1015189
09:00+20в57755 0.3 1015431
12:00+24вюв686184 0.0 1014811
15:00+26юв57585 0.0 10131050
18:00+23юв510704 0.0 1012379
21:00+18вюв414875 0.0 1012264
18 мая, вт
вт1800:00+16юв5168118 0.0 1011301
03:00+15юв5157161 0.0 1010299
06:00+15юв5147621 0.0 1010284
09:00+20юв6146553 0.0 1009495
12:00+24юв7135686 0.0 10091014
15:00+25юв7135684 0.0 10081603
18:00+23ююв6116782 0.0 1007568
21:00+18ю378481 0.0 1008124
19 мая, ср
ср1900:00+16ююз3489100 0.0 100856
03:00+15ююв3590100 0.4 100779
06:00+16юв3893100 0.3 1006245
09:00+18юв51385100 0.4 1005724
12:00+19ююв71278100 0.8 10041153
15:00+14ю7128713 5.4 1005768
18:00+17ююв8128532 0.8 1004995
21:00+12ююз9159198 1.1 1005677